DK4MDA-13 Weather Reports


time (UTC)temp
F
wind
direction
speed
knots
gust
knots
rain 1hr
in
rain 24hr
in
rain mn
in
humidity
%
barometer
mb
20260506171206 55 78 1.7 5.2 0.00 1.41 1.41 89 1006.7
20260506170706 55 71 2.6 4.3 0.00 1.41 1.41 90 1006.7
20260506170206 55 42 1.7 5.2 0.00 1.41 1.41 90 1006.7
20260506165706 55 45 1.7 4.3 0.00 1.41 1.41 90 1006.7
20260506165206 55 63 1.7 4.3 0.00 1.41 1.41 89 1006.7
20260506164706 55 81 1.7 4.3 0.00 1.41 1.41 89 1006.7
20260506164206 55 40 1.7 6.1 0.00 1.41 1.41 89 1006.7
20260506163706 55 45 2.6 5.2 0.00 1.41 1.41 89 1006.7
20260506163206 55 86 2.6 4.3 0.00 1.41 1.41 90 1006.6
20260506162706 55 68 1.7 6.1 0.00 1.41 1.41 90 1006.6
20260506162206 55 90 1.7 3.5 0.00 1.41 1.41 90 1006.6
20260506161706 55 39 2.6 2.6 0.00 1.41 1.41 91 1006.5
20260506161206 55 48 2.6 7.8 0.00 1.41 1.41 90 1006.5
20260506160706 55 61 2.6 7.0 0.00 1.41 1.41 91 1006.3
20260506160206 55 41 2.6 4.3 0.01 1.41 1.41 91 1006.2
20260506155706 55 96 2.6 7.0 0.01 1.41 1.41 91 1006.2
20260506155206 55 68 1.7 6.1 0.02 1.41 1.41 92 1006.3
20260506154706 55 73 1.7 4.3 0.02 1.41 1.41 92 1006.4
20260506154206 55 56 1.7 4.3 0.02 1.41 1.41 92 1006.4
20260506153706 55 73 1.7 4.3 0.02 1.41 1.41 92 1006.5
20260506153206 55 81 1.7 4.3 0.02 1.41 1.41 93 1006.6
20260506152706 55 65 1.7 4.3 0.02 1.41 1.41 93 1006.5
20260506152206 55 61 1.7 2.6 0.02 1.41 1.41 93 1006.6
20260506151706 55 94 2.6 6.1 0.02 1.41 1.41 92 1006.5
20260506151206 54 93 2.6 7.8 0.02 1.41 1.41 92 1006.5
20260506150706 55 77 1.7 7.0 0.02 1.41 1.41 93 1006.4
20260506150206 55 86 1.7 3.5 0.01 1.40 1.40 93 1006.4
20260506145707 55 56 1.7 2.6 0.01 1.40 1.40 93 1006.5
20260506145206 54 74 1.7 4.3 0.00 1.39 1.39 92 1006.6
20260506144706 54 31 1.7 4.3 0.00 1.39 1.39 92 1006.5
20260506144207 54 55 1.7 3.5 0.00 1.39 1.39 92 1006.6
20260506143707 54 48 1.7 4.3 0.00 1.39 1.39 92 1006.7
20260506143207 55 88 2.6 4.3 0.00 1.39 1.39 91 1006.6
20260506142707 55 52 1.7 4.3 0.00 1.39 1.39 91 1006.6
20260506142207 55 83 1.7 5.2 0.00 1.39 1.39 91 1006.6
20260506141707 55 39 1.7 3.5 0.00 1.39 1.39 91 1006.7
20260506141207 55 43 1.7 6.1 0.00 1.39 1.39 91 1006.6
20260506140707 55 36 1.7 4.3 0.00 1.39 1.39 90 1006.6
20260506140207 55 72 1.7 3.5 0.00 1.39 1.39 90 1006.6
20260506135707 55 101 1.7 4.3 0.00 1.39 1.39 89 1006.6
20260506135207 56 31 1.7 4.3 0.00 1.39 1.39 89 1006.6
20260506134707 56 72 0.9 6.1 0.00 1.39 1.39 89 1006.6
20260506134207 56 36 0.9 3.5 0.00 1.39 1.39 90 1006.7
20260506133707 56 26 1.7 3.5 0.00 1.39 1.39 90 1006.6
20260506133207 56 47 1.7 3.5 0.00 1.39 1.39 90 1006.6
20260506132707 56 77 1.7 3.5 0.00 1.39 1.39 90 1006.6
20260506132207 56 85 1.7 3.5 0.00 1.39 1.39 91 1006.6
20260506131707 56 72 1.7 4.3 0.00 1.39 1.39 91 1006.5
20260506131207 55 93 1.7 4.3 0.00 1.39 1.39 91 1006.5
20260506130707 55 60 1.7 4.3 0.00 1.39 1.39 92 1006.5
20260506130207 55 61 1.7 5.2 0.00 1.39 1.39 92 1006.5
20260506125707 55 68 1.7 3.5 0.00 1.39 1.39 93 1006.6
20260506125207 55 47 1.7 3.5 0.01 1.39 1.39 94 1006.5
20260506124707 54 95 2.6 4.3 0.01 1.39 1.39 93 1006.6
20260506124207 54 69 1.7 5.2 0.01 1.39 1.39 94 1006.6
20260506123707 54 35 1.7 3.5 0.02 1.39 1.39 94 1006.6
20260506123207 54 97 1.7 3.5 0.03 1.39 1.39 94 1006.6
20260506122707 54 66 0.9 2.6 0.04 1.39 1.39 94 1006.6
20260506122207 54 95 1.7 2.6 0.04 1.39 1.39 95 1006.6
20260506121707 54 86 1.7 4.3 0.04 1.39 1.39 95 1006.6
20260506121207 54 38 1.7 3.5 0.04 1.39 1.39 95 1006.6
20260506120707 54 91 1.7 2.6 0.04 1.39 1.39 95 1006.5
20260506120207 54 61 1.7 2.6 0.04 1.39 1.39 95 1006.5
20260506115707 53 44 2.6 5.2 0.04 1.39 1.39 95 1006.5
20260506115207 53 37 2.6 5.2 0.03 1.38 1.38 94 1006.5
20260506114707 53 26 2.6 4.3 0.03 1.38 1.38 94 1006.5
20260506114207 53 26 2.6 5.2 0.03 1.38 1.38 94 1006.7
20260506113707 53 26 1.7 4.3 0.03 1.37 1.37 94 1006.7
20260506113207 53 37 1.7 3.5 0.02 1.36 1.36 94 1006.6
20260506112707 53 41 1.7 3.5 0.01 1.35 1.35 94 1006.6
20260506112207 53 31 1.7 3.5 0.01 1.35 1.35 94 1006.7
20260506111707 53 31 2.6 4.3 0.01 1.35 1.35 94 1006.5
20260506111207 53 38 2.6 3.5 0.01 1.35 1.35 94 1006.6
20260506110707 53 26 2.6 3.5 0.01 1.35 1.35 94 1006.6
20260506110207 53 38 2.6 4.3 0.01 1.35 1.35 94 1006.5
20260506105707 53 26 2.6 7.0 0.01 1.35 1.35 93 1006.3
20260506105207 53 26 1.7 4.3 0.01 1.35 1.35 94 1006.3
20260506104707 53 84 0.9 1.7 0.01 1.35 1.35 94 1006.4
20260506104207 53 39 1.7 2.6 0.01 1.35 1.35 94 1006.4
20260506103707 53 21 1.7 3.5 0.00 1.34 1.34 94 1006.3
20260506103207 52 26 1.7 4.3 0.00 1.34 1.34 94 1006.4
20260506102707 52 26 0.9 2.6 0.00 1.34 1.34 94 1006.3
20260506102207 52 81 1.7 2.6 0.00 1.34 1.34 94 1006.3
20260506101707 52 54 1.7 4.3 0.00 1.34 1.34 93 1006.1
20260506101207 52 61 1.7 3.5 0.00 1.34 1.34 93 1006.2
20260506100707 52 35 2.6 5.2 0.00 1.34 1.34 94 1006.1
20260506100207 52 31 1.7 4.3 0.00 1.34 1.34 94 1006.1
20260506095707 52 16 1.7 4.3 0.00 1.34 1.34 94 1006.1
20260506095207 52 79 1.7 3.5 0.00 1.34 1.34 93 1006.1
20260506094707 52 50 1.7 3.5 0.00 1.34 1.34 94 1006.0
20260506094207 52 35 1.7 5.2 0.00 1.34 1.34 94 1006.0
20260506093707 52 35 1.7 3.5 0.00 1.34 1.34 94 1006.0
20260506093207 52 36 2.6 6.1 0.00 1.34 1.34 93 1006.1
20260506092707 52 80 2.6 4.3 0.00 1.34 1.34 94 1005.9
20260506092207 52 21 2.6 4.3 0.00 1.35 1.34 93 1006.1
20260506091707 51 31 2.6 7.0 0.00 1.35 1.34 93 1005.9
20260506091207 51 53 2.6 5.2 0.00 1.35 1.34 93 1005.9
20260506090707 51 26 3.5 5.2 0.01 1.35 1.34 94 1005.9
20260506090207 51 26 2.6 7.0 0.01 1.35 1.34 93 1005.8
20260506085707 51 26 2.6 5.2 0.01 1.35 1.34 94 1005.9
20260506085207 51 44 2.6 4.3 0.01 1.35 1.34 94 1005.9
20260506084707 51 37 3.5 7.8 0.01 1.35 1.34 94 1005.8
20260506084207 51 31 3.5 7.0 0.02 1.35 1.34 95 1005.8
20260506083707 51 21 2.6 5.2 0.02 1.35 1.34 94 1005.7
20260506083207 51 31 1.7 5.2 0.02 1.35 1.34 95 1005.7
20260506082707 51 26 1.7 3.5 0.03 1.35 1.34 95 1005.7
20260506082207 51 106 2.6 3.5 0.03 1.35 1.34 95 1005.6
20260506081707 51 45 3.5 6.1 0.04 1.35 1.34 95 1005.7
20260506081207 51 39 3.5 4.3 0.05 1.35 1.34 95 1005.7
20260506080707 51 49 3.5 6.1 0.04 1.34 1.33 95 1005.7
20260506080207 51 31 4.3 7.8 0.05 1.34 1.33 95 1005.7
20260506073207 50 43 2.6 4.3 0.11 1.33 1.32 95 1005.7
20260506072707 50 35 1.7 4.3 0.11 1.32 1.31 95 1005.5
20260506072207 50 41 0.9 2.6 0.12 1.32 1.31 95 1005.6
20260506071707 50 48 1.7 2.6 0.12 1.31 1.30 95 1005.6
20260506071207 50 36 2.6 3.5 0.12 1.30 1.29 95 1005.6
20260506070707 50 767 2.6 4.3 0.13 1.30 1.29 95 1005.6
20260506070207 50 31 2.6 5.2 0.13 1.29 1.28 95 1005.5
20260506062207 50 767 2.6 3.5 0.11 1.20 1.19 95 1005.2
20260506061707 50 37 2.6 5.2 0.12 1.19 1.18 95 1005.2
20260506061207 50 39 3.5 5.2 0.12 1.18 1.17 95 1005.2
20260506060707 50 21 3.5 7.0 0.12 1.17 1.16 95 1005.2
20260506060207 50 26 2.6 4.3 0.12 1.16 1.15 95 1005.2
20260506051207 50 26 3.5 7.0 0.20 1.07 1.05 95 1005.1
20260506050707 50 26 2.6 5.2 0.20 1.06 1.04 95 1005.3
20260506050207 50 767 2.6 5.2 0.20 1.05 1.03 95 1005.3
20260506044707 50 31 3.5 7.8 0.19 1.00 0.98 95 1005.2
20260506044207 50 39 4.3 7.0 0.17 0.97 0.95 95 1005.2
20260506043707 50 39 4.3 9.6 0.16 0.95 0.93 95 1005.2
20260506043207 50 31 3.5 7.8 0.15 0.93 0.91 95 1005.1
20260506042707 50 48 4.3 7.8 0.14 0.91 0.89 95 1005.1
20260506042207 51 26 4.3 9.6 0.14 0.91 0.88 94 1005.1
20260506041707 51 56 3.5 7.0 0.13 0.89 0.86 95 1005.1
20260506041207 51 51 3.5 5.2 0.13 0.88 0.85 95 1005.1
20260506040707 51 42 3.5 7.0 0.13 0.87 0.84 95 1005.0
20260506040207 51 26 3.5 7.0 0.13 0.86 0.83 95 1005.0
20260506035707 51 767 3.5 7.0 0.13 0.85 0.82 95 1005.0
20260506035207 51 38 3.5 7.0 0.12 0.83 0.80 95 1005.1
20260506034707 51 43 3.5 7.0 0.12 0.82 0.79 95 1005.1
20260506034207 51 35 3.5 7.8 0.12 0.81 0.78 95 1005.2
20260506033707 51 26 3.5 7.8 0.13 0.80 0.77 94 1005.2
20260506033207 51 11 4.3 7.8 0.15 0.79 0.76 95 1005.1
20260506032707 51 31 5.2 8.7 0.15 0.78 0.75 95 1005.1
20260506032207 51 16 4.3 9.6 0.17 0.77 0.74 95 1005.3
20260506031707 51 31 4.3 7.8 0.19 0.76 0.73 95 1005.3
20260506031207 51 767 4.3 7.8 0.20 0.75 0.72 95 1005.2
20260506030707 51 31 5.2 9.6 0.22 0.74 0.71 95 1005.3
20260506030207 51 767 4.3 8.7 0.24 0.73 0.70 95 1005.2
20260506025708 51 767 4.3 7.8 0.27 0.72 0.69 95 1005.4
20260506025207 51 41 3.5 7.8 0.29 0.71 0.68 95 1005.4
20260506024708 51 26 3.5 7.0 0.29 0.70 0.67 95 1005.5
20260506024208 51 26 2.6 5.2 0.30 0.69 0.66 94 1005.5
20260506023707 51 26 2.6 4.3 0.30 0.67 0.64 94 1005.5
20260506023208 51 37 3.5 7.0 0.29 0.64 0.61 94 1005.6
20260506022708 51 767 3.5 7.8 0.29 0.63 0.60 94 1005.7
20260506022208 51 31 3.5 5.2 0.27 0.60 0.57 95 1005.7
20260506021708 51 37 3.5 6.1 0.26 0.57 0.54 94 1005.9
20260506021208 51 40 3.5 7.0 0.25 0.55 0.52 94 1005.8
20260506020708 51 42 3.5 5.2 0.23 0.52 0.49 94 1005.8
20260506020208 51 31 3.5 6.1 0.21 0.49 0.46 94 1005.8
20260506015708 52 39 3.5 5.2 0.17 0.45 0.42 94 1005.8
20260506015208 52 36 3.5 5.2 0.15 0.42 0.39 94 1005.8
20260506014708 52 26 2.6 7.0 0.15 0.41 0.38 94 1005.9
20260506014208 52 59 2.6 4.3 0.14 0.39 0.36 94 1005.9
20260506013708 52 42 3.5 7.8 0.13 0.37 0.34 94 1005.9
20260506013208 52 26 3.5 7.0 0.12 0.35 0.32 94 1005.9
20260506012708 52 53 3.5 7.8 0.12 0.34 0.31 94 1005.9
20260506012208 52 767 4.3 7.8 0.12 0.34 0.30 94 1005.8
20260506011708 52 42 3.5 11.3 0.11 0.32 0.28 94 1005.9
20260506011208 52 26 3.5 8.7 0.11 0.31 0.27 94 1005.9
20260506010708 52 48 4.3 7.8 0.10 0.30 0.26 94 1006.0
20260506010208 52 35 4.3 11.3 0.10 0.29 0.25 94 1005.9
20260506005708 52 37 2.6 6.1 0.10 0.29 0.25 94 1005.9
20260506005208 52 26 3.5 8.7 0.10 0.28 0.24 94 1006.0
20260506004708 52 26 3.5 7.0 0.10 0.27 0.23 94 1006.1
20260506004208 52 31 4.3 7.0 0.09 0.26 0.22 94 1006.0
20260506003708 52 21 5.2 8.7 0.09 0.25 0.21 94 1006.0
20260506003208 52 48 5.2 9.6 0.09 0.24 0.20 94 1006.1
20260506002708 52 15 4.3 9.6 0.08 0.23 0.19 94 1006.1
20260506002208 52 767 5.2 7.8 0.08 0.22 0.18 94 1006.3
20260506001708 52 26 5.2 9.6 0.07 0.21 0.17 94 1006.2
20260506001208 52 39 5.2 8.7 0.07 0.20 0.16 94 1006.3
20260506000708 52 56 4.3 9.6 0.08 0.20 0.16 94 1006.4
20260506000208 52 26 3.5 7.8 0.07 0.19 0.15 94 1006.3
20260505235708 52 767 3.5 7.0 0.08 0.19 0.15 94 1006.6
20260505235208 52 54 4.3 7.0 0.08 0.18 0.14 94 1006.6
20260505234708 52 31 3.5 7.8 0.07 0.17 0.13 94 1006.6
20260505234208 52 26 4.3 7.8 0.08 0.17 0.13 94 1006.7
20260505233708 52 31 4.3 7.8 0.08 0.16 0.12 94 1006.8
20260505233208 52 31 4.3 8.7 0.08 0.15 0.11 94 1006.7
20260505232708 52 26 5.2 8.7 0.09 0.15 0.11 94 1006.8
20260505232208 52 26 5.2 8.7 0.08 0.15 0.10 93 1006.7
20260505231708 52 26 5.2 9.6 0.09 0.15 0.10 93 1006.8
20260505231208 52 26 5.2 9.6 0.08 0.14 0.09 93 1006.9
20260505230708 52 8 4.3 7.8 0.07 0.13 0.08 93 1006.8
20260505230208 52 41 5.2 7.8 0.08 0.13 0.08 93 1006.7
20260505225708 53 26 5.2 11.3 0.07 0.12 0.07 93 1006.8
20260505225208 53 21 5.2 8.7 0.06 0.11 0.06 93 1006.8
20260505224708 53 31 5.2 8.7 0.06 0.11 0.06 93 1007.0
20260505224208 53 767 4.3 8.7 0.05 0.10 0.05 92 1007.0
20260505223708 53 21 4.3 7.8 0.04 0.09 0.04 92 1007.1
20260505223208 53 26 5.2 8.7 0.03 0.08 0.03 92 1007.2
20260505222708 53 0 5.2 8.7 0.02 0.07 0.02 92 1007.3
20260505222208 53 31 6.1 10.4 0.02 0.20 0.02 92 1007.2
20260505221708 53 359 5.2 9.6 0.01 0.19 0.01 92 1007.3
20260505221208 53 39 5.2 7.8 0.01 0.19 0.01 92 1007.2
20260505220708 53 26 6.1 9.6 0.01 0.19 0.01 91 1007.3
20260505220208 54 26 5.2 8.7 0.00 0.18 0.00 91 1007.3
20260505215708 54 45 5.2 8.7 0.00 0.18 0.46 91 1007.3
20260505215208 54 39 5.2 8.7 0.00 0.18 0.46 91 1007.4
20260505214708 54 38 6.1 8.7 0.00 0.18 0.46 90 1007.3
20260505214208 54 26 6.1 10.4 0.00 0.18 0.46 90 1007.4
20260505213708 54 26 7.0 10.4 0.00 0.18 0.46 90 1007.4
20260505213208 54 13 6.1 10.4 0.00 0.18 0.46 90 1007.5
20260505212708 54 26 6.1 8.7 0.00 0.18 0.46 90 1007.5
20260505212208 54 26 6.1 9.6 0.00 0.46 0.46 90 1007.5
20260505211708 54 21 6.1 8.7 0.00 0.46 0.46 90 1007.4
20260505211208 54 351 6.1 10.4 0.00 0.46 0.46 90 1007.5
20260505210708 54 26 6.1 10.4 0.00 0.46 0.46 91 1007.4
20260505210208 54 26 7.0 10.4 0.00 0.46 0.46 91 1007.4
20260505205708 54 21 6.1 10.4 0.00 0.46 0.46 91 1007.5
20260505205208 54 31 6.1 11.3 0.00 0.46 0.46 90 1007.6
20260505204708 54 26 7.0 10.4 0.00 0.46 0.46 90 1007.5
20260505204208 54 26 7.0 11.3 0.00 0.46 0.46 90 1007.5
20260505203708 54 26 7.0 10.4 0.00 0.46 0.46 90 1007.5
20260505203208 54 31 6.1 10.4 0.00 0.46 0.46 90 1007.8
20260505202708 54 17 6.1 9.6 0.00 0.46 0.46 90 1007.6
20260505202208 54 21 7.0 10.4 0.00 0.59 0.46 90 1007.7
20260505201708 54 26 7.8 9.6 0.00 0.59 0.46 90 1007.6
20260505201208 55 339 7.8 11.3 0.00 0.59 0.46 90 1007.6
20260505200708 55 26 7.8 11.3 0.00 0.59 0.46 90 1007.7
20260505200208 55 26 7.8 12.2 0.00 0.59 0.46 89 1007.7
20260505195708 55 26 7.0 11.3 0.00 0.59 0.46 89 1007.6
20260505195208 55 26 7.0 10.4 0.00 0.59 0.46 89 1007.6
20260505194708 55 39 7.0 9.6 0.00 0.59 0.46 89 1007.6
20260505194208 55 356 7.0 11.3 0.00 0.59 0.46 89 1007.6
20260505193708 55 17 6.1 12.2 0.00 0.59 0.46 88 1007.7
20260505193208 56 354 6.1 7.8 0.00 0.59 0.46 89 1007.7
20260505192708 56 31 7.0 10.4 0.00 0.59 0.46 88 1007.7
20260505192208 56 21 6.1 8.7 0.00 0.59 0.46 88 1007.8
20260505191708 56 35 5.2 8.7 0.00 0.59 0.46 88 1007.7
20260505191208 56 39 6.1 8.7 0.00 0.59 0.46 88 1007.7
20260505190708 56 21 7.0 8.7 0.00 0.59 0.46 88 1007.7
20260505190208 56 26 7.8 11.3 0.00 0.59 0.46 88 1007.7
20260505185708 56 26 7.0 11.3 0.00 0.59 0.46 87 1007.7
20260505185208 57 11 5.2 9.6 0.00 0.59 0.46 87 1007.7
20260505184708 57 31 5.2 7.8 0.00 0.59 0.46 87 1007.7
20260505184208 57 35 6.1 9.6 0.00 0.59 0.46 87 1007.7
20260505183708 57 15 6.1 10.4 0.00 0.59 0.46 87 1007.8
20260505183208 57 26 5.2 8.7 0.00 0.59 0.46 87 1007.8
20260505182708 57 26 5.2 7.8 0.00 0.59 0.46 87 1007.7
20260505182208 57 50 5.2 7.8 0.00 0.59 0.46 86 1007.6
20260505181708 58 26 5.2 7.8 0.00 0.59 0.46 86 1007.6
20260505181208 58 31 5.2 8.7 0.00 0.59 0.46 87 1007.6
20260505180708 58 357 5.2 8.7 0.00 0.59 0.46 86 1007.6
20260505180208 58 354 4.3 8.7 0.00 0.59 0.46 86 1007.6
20260505175708 58 21 5.2 7.8 0.00 0.59 0.46 86 1007.5
20260505175208 58 0 6.1 9.6 0.00 0.59 0.46 86 1007.5
20260505174708 58 50 7.0 9.6 0.00 0.59 0.46 86 1007.5
20260505173709 58 347 6.1 10.4 0.00 0.59 0.46 86 1007.6
20260505173209 59 355 6.1 9.6 0.00 0.59 0.46 85 1007.6
20260505172709 59 351 5.2 9.6 0.00 0.59 0.46 85 1007.6
20260505171709 59 351 6.1 10.4 0.00 0.59 0.46 84 1007.5